TimeCDT,TemperatureF,Dew PointF,Humidity,Sea Level PressureIn,VisibilityMPH,Wind Direction,Wind SpeedMPH,Gust SpeedMPH,PrecipitationIn,Events,Conditions,WindDirDegrees,DateUTC
12:15 AM,44.6,26.6,49,30.09,10.0,South,21.9,-,N/A,,Clear,180,2013-04-04 05:15:00
12:35 AM,42.8,26.6,53,30.09,10.0,South,19.6,-,N/A,,Clear,180,2013-04-04 05:35:00
1:15 AM,42.8,26.6,53,30.08,10.0,South,19.6,-,N/A,,Clear,180,2013-04-04 06:15:00
1:34 AM,42.8,26.6,53,30.09,10.0,South,16.1,-,N/A,,Clear,180,2013-04-04 06:34:00
1:55 AM,41.0,26.6,57,30.10,10.0,South,10.4,-,N/A,,Scattered Clouds,190,2013-04-04 06:55:00
2:15 AM,41.0,26.6,57,30.09,10.0,South,15.0,-,N/A,,Mostly Cloudy,180,2013-04-04 07:15:00
2:35 AM,41.0,26.6,57,30.08,10.0,South,13.8,-,N/A,,Scattered Clouds,180,2013-04-04 07:35:00
2:54 AM,41.0,26.6,57,30.08,10.0,South,11.5,-,N/A,,Scattered Clouds,190,2013-04-04 07:54:00
3:15 AM,42.8,26.6,53,30.07,10.0,SSW,10.4,17.3,N/A,,Scattered Clouds,200,2013-04-04 08:15:00
3:35 AM,42.8,26.6,53,30.06,10.0,SSW,13.8,19.6,N/A,,Scattered Clouds,200,2013-04-04 08:35:00
3:55 AM,42.8,24.8,49,30.06,10.0,SSW,15.0,19.6,N/A,,Clear,200,2013-04-04 08:55:00
4:15 AM,42.8,26.6,53,30.06,10.0,SSW,11.5,-,N/A,,Scattered Clouds,210,2013-04-04 09:15:00
4:35 AM,42.8,26.6,53,30.04,10.0,SSW,11.5,-,N/A,,Scattered Clouds,200,2013-04-04 09:35:00
4:54 AM,42.8,26.6,53,30.05,10.0,SSW,9.2,-,N/A,,Scattered Clouds,200,2013-04-04 09:54:00
5:14 AM,42.8,26.6,53,30.05,10.0,SSW,10.4,-,N/A,,Scattered Clouds,210,2013-04-04 10:14:00
5:35 AM,42.8,26.6,53,30.05,10.0,SSW,13.8,18.4,N/A,,Mostly Cloudy,210,2013-04-04 10:35:00
5:55 AM,41.0,26.6,57,30.06,10.0,SSW,8.1,-,N/A,,Scattered Clouds,200,2013-04-04 10:55:00
6:15 AM,39.2,26.6,61,30.07,10.0,West,9.2,-,N/A,,Scattered Clouds,280,2013-04-04 11:15:00
6:35 AM,39.2,28.4,65,30.07,10.0,Calm,Calm,-,N/A,Rain,Light Rain,0,2013-04-04 11:35:00
6:55 AM,39.2,28.4,65,30.07,10.0,WSW,5.8,-,N/A,,Mostly Cloudy,240,2013-04-04 11:55:00
7:15 AM,39.2,30.2,70,30.08,10.0,Calm,Calm,-,N/A,,Mostly Cloudy,0,2013-04-04 12:15:00
7:35 AM,39.2,30.2,70,30.08,10.0,WSW,11.5,-,N/A,,Mostly Cloudy,250,2013-04-04 12:35:00
7:54 AM,39.2,30.2,70,30.10,10.0,West,12.7,-,N/A,,Scattered Clouds,280,2013-04-04 12:54:00
8:15 AM,39.2,30.2,70,30.10,10.0,West,10.4,17.3,N/A,,Light Drizzle,280,2013-04-04 13:15:00
8:35 AM,39.2,30.2,70,30.10,10.0,West,8.1,-,N/A,Rain,Light Rain,280,2013-04-04 13:35:00
8:55 AM,39.2,30.2,70,30.10,7.0,West,10.4,-,N/A,Rain,Light Rain,280,2013-04-04 13:55:00
9:15 AM,39.2,30.2,70,30.11,10.0,WNW,10.4,-,N/A,Rain,Light Rain,290,2013-04-04 14:15:00
9:34 AM,41.0,30.2,65,30.10,10.0,WNW,11.5,18.4,N/A,,Scattered Clouds,300,2013-04-04 14:34:00
9:55 AM,42.8,30.2,61,30.11,10.0,NW,12.7,17.3,N/A,,Scattered Clouds,310,2013-04-04 14:55:00
10:15 AM,42.8,30.2,61,30.10,10.0,NW,13.8,18.4,N/A,,Scattered Clouds,310,2013-04-04 15:15:00
10:34 AM,44.6,30.2,57,30.10,10.0,WNW,16.1,19.6,N/A,,Scattered Clouds,300,2013-04-04 15:34:00
10:55 AM,46.4,28.4,50,30.11,10.0,NW,17.3,23.0,N/A,,Scattered Clouds,310,2013-04-04 15:55:00
11:34 AM,48.2,24.8,40,30.12,10.0,NW,19.6,24.2,N/A,,Clear,320,2013-04-04 16:34:00
11:55 AM,48.2,24.8,40,30.12,10.0,NW,16.1,23.0,N/A,,Clear,320,2013-04-04 16:55:00
12:15 PM,50.0,26.6,40,30.12,10.0,NW,17.3,23.0,N/A,,Clear,320,2013-04-04 17:15:00
12:34 PM,50.0,26.6,40,30.12,10.0,NW,17.3,24.2,N/A,,Clear,320,2013-04-04 17:34:00
12:55 PM,51.8,28.4,41,30.13,10.0,NW,16.1,-,N/A,,Clear,310,2013-04-04 17:55:00
1:15 PM,50.0,26.6,40,30.13,10.0,NW,17.3,21.9,N/A,,Clear,320,2013-04-04 18:15:00
1:35 PM,51.8,28.4,41,30.13,10.0,NNW,17.3,21.9,N/A,,Clear,330,2013-04-04 18:35:00
1:55 PM,51.8,30.2,44,30.12,10.0,NW,15.0,23.0,N/A,,Clear,320,2013-04-04 18:55:00
2:15 PM,51.8,30.2,44,30.12,10.0,NW,17.3,21.9,N/A,,Clear,310,2013-04-04 19:15:00
2:35 PM,51.8,30.2,44,30.12,10.0,NW,17.3,24.2,N/A,,Clear,320,2013-04-04 19:35:00
2:55 PM,53.6,30.2,41,30.12,10.0,NW,13.8,21.9,N/A,,Scattered Clouds,310,2013-04-04 19:55:00
3:15 PM,53.6,30.2,41,30.12,10.0,NNW,17.3,24.2,N/A,,Scattered Clouds,330,2013-04-04 20:15:00
3:35 PM,53.6,30.2,41,30.11,10.0,NNW,12.7,-,N/A,,Scattered Clouds,340,2013-04-04 20:35:00
3:55 PM,53.6,30.2,41,30.11,10.0,NW,15.0,19.6,N/A,,Scattered Clouds,320,2013-04-04 20:55:00
4:15 PM,51.8,28.4,41,30.11,10.0,NNW,12.7,20.7,N/A,,Clear,340,2013-04-04 21:15:00
4:35 PM,53.6,26.6,35,30.11,10.0,NNW,16.1,21.9,N/A,,Clear,330,2013-04-04 21:35:00
4:55 PM,51.8,26.6,38,30.11,10.0,NNW,13.8,-,N/A,,Clear,330,2013-04-04 21:55:00
5:15 PM,51.8,28.4,41,30.11,10.0,NNW,15.0,-,N/A,,Scattered Clouds,330,2013-04-04 22:15:00
5:35 PM,51.8,28.4,41,30.12,10.0,NW,16.1,21.9,N/A,,Scattered Clouds,320,2013-04-04 22:35:00
5:55 PM,50.0,26.6,40,30.12,10.0,NNW,17.3,20.7,N/A,,Clear,330,2013-04-04 22:55:00
6:14 PM,48.2,28.4,46,30.13,10.0,NW,18.4,23.0,N/A,,Clear,310,2013-04-04 23:14:00
6:35 PM,48.2,26.6,43,30.13,10.0,NW,16.1,-,N/A,,Clear,320,2013-04-04 23:35:00
6:55 PM,46.4,26.6,46,30.14,10.0,NW,17.3,-,N/A,,Clear,320,2013-04-04 23:55:00
7:14 PM,46.4,28.4,50,30.14,10.0,NW,13.8,-,N/A,,Scattered Clouds,320,2013-04-05 00:14:00
7:35 PM,44.6,26.6,49,30.14,10.0,NNW,12.7,-,N/A,,Scattered Clouds,340,2013-04-05 00:35:00
7:55 PM,42.8,26.6,53,30.14,10.0,NW,6.9,10.4,N/A,,Mostly Cloudy,320,2013-04-05 00:55:00
8:15 PM,41.0,28.4,61,30.15,10.0,NW,11.5,-,N/A,,Scattered Clouds,310,2013-04-05 01:15:00
8:34 PM,41.0,28.4,61,30.16,10.0,NW,12.7,-,N/A,,Clear,310,2013-04-05 01:34:00
8:55 PM,39.2,26.6,61,30.17,10.0,NW,13.8,-,N/A,,Clear,310,2013-04-05 01:55:00
9:15 PM,37.4,26.6,65,30.18,10.0,NW,11.5,-,N/A,,Clear,310,2013-04-05 02:15:00
9:34 PM,37.4,26.6,65,30.18,10.0,WNW,8.1,-,N/A,,Clear,300,2013-04-05 02:34:00
9:55 PM,35.6,26.6,70,30.19,10.0,NW,10.4,-,N/A,,Clear,310,2013-04-05 02:55:00
10:15 PM,35.6,26.6,70,30.19,10.0,WNW,9.2,-,N/A,,Clear,300,2013-04-05 03:15:00
10:35 PM,35.6,26.6,70,30.19,10.0,NW,11.5,-,N/A,,Clear,310,2013-04-05 03:35:00
10:55 PM,33.8,26.6,75,30.20,10.0,NW,11.5,-,N/A,,Clear,310,2013-04-05 03:55:00
11:15 PM,33.8,26.6,75,30.19,10.0,WNW,10.4,-,N/A,,Clear,300,2013-04-05 04:15:00
11:35 PM,33.8,26.6,75,30.20,10.0,WNW,9.2,-,N/A,,Clear,300,2013-04-05 04:35:00
11:55 PM,33.8,26.6,75,30.20,10.0,NW,10.4,-,N/A,,Clear,310,2013-04-05 04:55:00